Terug naar catalogus

STARLINK-3944

ActiefCommunicatieVLEO
NORAD 52544·PAYLOAD·🇺🇸 United States

Gelanceerd May 13, 2022 vanaf Vandenberg Space Force Base

Loading…

Volgende Passages (komende 24 uur)

TLE

VersSource: CelesTrak SupGP

Epoch: Sep 15, 2026, 02:14 UTC

1 52544C 22051M   26258.09354167  .00033167  00000+0  10666-2 0  2586
2 52544  53.1599 359.2171 0001050  92.6909 184.0202 15.31684134    17

Volg STARLINK-3944 in realtime met AllMySat

Download on the App Store